When you browse on this site, cookies collect data to enhance your experience and personalize the content and advertising you see.
Visit our Privacy Policy to learn more. By continuing to use the site, you agree to this use of cookies and data.
  • In Sweden
  • List of Countries
  • For 7 days
  • Water Temperature
  • Weather Map
  • Weather Widgets
  • user-avatar
    Login

    Hourly Weather Florianópolis

    Today, 1 April, Wednesday

    Time Temperature Precipitation Wind Pressure Humidity
    00:00 +24°C° 0 mm 1 mps 762 mmHg 89%
    01:00 +24°C° 0.1 mm 1 mps 761 mmHg 89%
    02:00 +24°C° 0.1 mm 1 mps 761 mmHg 89%
    03:00 +24°C° 0 mm 1 mps 761 mmHg 91%
    04:00 +24°C° 0.1 mm 1 mps 761 mmHg 91%
    05:00 +23°C° 0.1 mm 1 mps 761 mmHg 91%
    06:00 +23°C° 0.1 mm 1 mps 761 mmHg 90%
    07:00 +24°C° 0 mm 1 mps 761 mmHg 86%
    08:00 +23°C° 0 mm 0 mps 762 mmHg 81%
    09:00 +24°C° 0 mm 0 mps 763 mmHg 76%
    10:00 +27°C° 0.1 mm 1 mps 762 mmHg 74%
    11:00 +28°C° 0.1 mm 1 mps 762 mmHg 72%
    12:00 +29°C° 0.1 mm 2 mps 762 mmHg 71%
    13:00 +29°C° 0.4 mm 2 mps 762 mmHg 75%
    14:00 +28°C° 0.4 mm 3 mps 761 mmHg 80%
    15:00 +28°C° 0.4 mm 3 mps 761 mmHg 85%
    16:00 +27°C° 0.1 mm 3 mps 761 mmHg 86%
    17:00 +27°C° 0.1 mm 3 mps 761 mmHg 87%
    18:00 +26°C° 0.1 mm 2 mps 761 mmHg 88%
    19:00 +26°C° 0 mm 2 mps 761 mmHg 89%
    20:00 +25°C° 0 mm 2 mps 761 mmHg 90%
    21:00 +25°C° 0 mm 2 mps 762 mmHg 90%
    22:00 +25°C° 0.1 mm 3 mps 762 mmHg 90%
    23:00 +25°C° 0.1 mm 3 mps 762 mmHg 90%

    Tomorrow, 2 April, Thursday

    Time Temperature Precipitation Wind Pressure Humidity
    00:00 +25°C° 0.1 mm 3 mps 762 mmHg 90%
    01:00 +25°C° 0.1 mm 3 mps 761 mmHg 91%
    02:00 +25°C° 0.1 mm 3 mps 760 mmHg 91%
    03:00 +25°C° 0.1 mm 3 mps 760 mmHg 91%
    04:00 +23°C° 0.1 mm 4 mps 759 mmHg 92%
    05:00 +23°C° 0.1 mm 4 mps 759 mmHg 92%
    06:00 +23°C° 0.1 mm 4 mps 759 mmHg 92%
    07:00 +25°C° 0 mm 4 mps 759 mmHg 89%
    08:00 +26°C° 0 mm 5 mps 758 mmHg 85%
    09:00 +27°C° 0 mm 5 mps 758 mmHg 82%
    10:00 +28°C° 0 mm 4 mps 758 mmHg 77%
    11:00 +29°C° 0 mm 4 mps 758 mmHg 71%
    12:00 +30°C° 0 mm 3 mps 757 mmHg 66%
    13:00 +29°C° 1 mm 3 mps 757 mmHg 74%
    14:00 +28°C° 1 mm 2 mps 756 mmHg 82%
    15:00 +26°C° 1 mm 2 mps 755 mmHg 90%
    16:00 +26°C° 0.1 mm 3 mps 755 mmHg 90%
    17:00 +26°C° 0.1 mm 3 mps 755 mmHg 89%
    18:00 +26°C° 0.1 mm 3 mps 755 mmHg 88%
    19:00 +25°C° 0.2 mm 3 mps 755 mmHg 89%
    20:00 +25°C° 0.2 mm 3 mps 755 mmHg 89%
    21:00 +25°C° 0.2 mm 2 mps 756 mmHg 90%
    22:00 +24°C° 0 mm 2 mps 755 mmHg 90%
    23:00 +24°C° 0 mm 2 mps 755 mmHg 91%

    Day after tomorrow, 3 April, Friday

    Time Temperature Precipitation Wind Pressure Humidity
    00:00 +23°C° 0 mm 2 mps 755 mmHg 91%
    01:00 +23°C° 0.1 mm 2 mps 755 mmHg 90%
    02:00 +21°C° 0.1 mm 3 mps 755 mmHg 90%
    03:00 +21°C° 0.1 mm 3 mps 755 mmHg 90%
    04:00 +20°C° 0 mm 3 mps 755 mmHg 88%
    05:00 +19°C° 0 mm 3 mps 756 mmHg 86%
    06:00 +18°C° 0 mm 3 mps 756 mmHg 84%
    07:00 +19°C° 0 mm 3 mps 756 mmHg 74%
    08:00 +21°C° 0 mm 3 mps 756 mmHg 64%
    09:00 +23°C° 0 mm 2 mps 757 mmHg 54%
    10:00 +25°C° 0 mm 2 mps 757 mmHg 50%
    11:00 +27°C° 0 mm 3 mps 757 mmHg 45%
    12:00 +28°C° 0 mm 3 mps 757 mmHg 40%
    13:00 +29°C° 0 mm 4 mps 757 mmHg 41%
    14:00 +29°C° 0 mm 5 mps 756 mmHg 43%
    15:00 +29°C° 0 mm 6 mps 756 mmHg 44%
    16:00 +27°C° 0 mm 6 mps 756 mmHg 51%
    17:00 +26°C° 0 mm 6 mps 757 mmHg 58%
    18:00 +23°C° 0 mm 6 mps 757 mmHg 65%
    19:00 +22°C° 0 mm 6 mps 757 mmHg 69%
    20:00 +21°C° 0 mm 5 mps 758 mmHg 72%
    21:00 +21°C° 0 mm 5 mps 759 mmHg 76%
    22:00 +20°C° 0 mm 5 mps 759 mmHg 78%
    23:00 +20°C° 0 mm 4 mps 759 mmHg 79%

    4 April, Saturday

    Time Temperature Precipitation Wind Pressure Humidity
    00:00 +20°C° 0 mm 4 mps 759 mmHg 80%
    01:00 +19°C° 0 mm 3 mps 759 mmHg 81%
    02:00 +19°C° 0 mm 3 mps 759 mmHg 82%
    03:00 +18°C° 0 mm 3 mps 759 mmHg 83%
    04:00 +18°C° 0 mm 3 mps 759 mmHg 84%
    05:00 +18°C° 0 mm 2 mps 759 mmHg 84%
    06:00 +18°C° 0 mm 2 mps 759 mmHg 85%
    07:00 +19°C° 0 mm 2 mps 760 mmHg 76%
    08:00 +22°C° 0 mm 1 mps 760 mmHg 67%
    09:00 +24°C° 0 mm 1 mps 761 mmHg 59%
    10:00 +25°C° 0 mm 1 mps 760 mmHg 55%
    11:00 +26°C° 0 mm 2 mps 760 mmHg 51%
    12:00 +27°C° 0 mm 2 mps 760 mmHg 48%
    13:00 +27°C° 0 mm 2 mps 760 mmHg 51%
    14:00 +26°C° 0 mm 3 mps 759 mmHg 54%
    15:00 +26°C° 0 mm 3 mps 759 mmHg 57%
    16:00 +25°C° 0 mm 3 mps 759 mmHg 62%
    17:00 +24°C° 0 mm 2 mps 759 mmHg 68%
    18:00 +23°C° 0 mm 2 mps 759 mmHg 73%
    19:00 +23°C° 0 mm 1 mps 760 mmHg 73%
    20:00 +23°C° 0 mm 1 mps 760 mmHg 72%
    21:00 +23°C° 0 mm 1 mps 761 mmHg 72%
    22:00 +22°C° 0 mm 1 mps 761 mmHg 74%
    23:00 +22°C° 0 mm 1 mps 761 mmHg 75%

    5 April, Sunday

    Time Temperature Precipitation Wind Pressure Humidity
    00:00 +22°C° 0 mm 1 mps 761 mmHg 76%
    01:00 +22°C° 0 mm 1 mps 761 mmHg 76%
    02:00 +22°C° 0 mm 1 mps 761 mmHg 75%
    03:00 +22°C° 0 mm 1 mps 761 mmHg 75%
    04:00 +22°C° 0 mm 1 mps 761 mmHg 76%
    05:00 +22°C° 0 mm 1 mps 761 mmHg 77%
    06:00 +21°C° 0 mm 2 mps 761 mmHg 77%
    07:00 +23°C° 0 mm 2 mps 761 mmHg 74%
    08:00 +24°C° 0 mm 2 mps 761 mmHg 71%
    09:00 +25°C° 0 mm 2 mps 762 mmHg 67%
    10:00 +27°C° 0 mm 3 mps 761 mmHg 64%
    11:00 +28°C° 0 mm 3 mps 761 mmHg 60%
    12:00 +29°C° 0 mm 4 mps 761 mmHg 57%
    13:00 +29°C° 0 mm 4 mps 760 mmHg 57%
    14:00 +29°C° 0 mm 4 mps 760 mmHg 58%
    15:00 +29°C° 0 mm 5 mps 759 mmHg 58%
    16:00 +28°C° 0 mm 5 mps 759 mmHg 65%
    17:00 +26°C° 0 mm 4 mps 759 mmHg 72%
    18:00 +25°C° 0 mm 4 mps 759 mmHg 80%
    19:00 +23°C° 0 mm 4 mps 760 mmHg 82%
    20:00 +23°C° 0 mm 4 mps 760 mmHg 85%
    21:00 +22°C° 0 mm 4 mps 761 mmHg 88%
    22:00 +22°C° 0 mm 4 mps 761 mmHg 87%
    23:00 +23°C° 0 mm 4 mps 761 mmHg 86%

    6 April, Monday

    Time Temperature Precipitation Wind Pressure Humidity
    00:00 +23°C° 0 mm 4 mps 761 mmHg 85%
    01:00 +23°C° 0 mm 4 mps 761 mmHg 85%
    02:00 +23°C° 0 mm 4 mps 761 mmHg 85%
    03:00 +23°C° 0 mm 4 mps 760 mmHg 86%
    04:00 +22°C° 0 mm 3 mps 760 mmHg 87%
    05:00 +22°C° 0 mm 3 mps 760 mmHg 89%
    06:00 +22°C° 0 mm 3 mps 760 mmHg 91%
    07:00 +24°C° 0 mm 3 mps 760 mmHg 84%
    08:00 +25°C° 0 mm 4 mps 760 mmHg 78%
    09:00 +27°C° 0 mm 4 mps 760 mmHg 71%
    10:00 +28°C° 0 mm 4 mps 760 mmHg 64%
    11:00 +30°C° 0 mm 4 mps 760 mmHg 57%
    12:00 +33°C° 0 mm 4 mps 759 mmHg 50%
    13:00 +33°C° 0 mm 4 mps 759 mmHg 50%
    14:00 +33°C° 0 mm 4 mps 758 mmHg 51%
    15:00 +33°C° 0 mm 4 mps 758 mmHg 51%
    16:00 +30°C° 0 mm 3 mps 758 mmHg 60%
    17:00 +28°C° 0 mm 2 mps 758 mmHg 69%
    18:00 +27°C° 0 mm 2 mps 759 mmHg 78%
    19:00 +26°C° 0 mm 2 mps 759 mmHg 78%
    20:00 +26°C° 0 mm 1 mps 759 mmHg 78%
    21:00 +25°C° 0 mm 1 mps 759 mmHg 78%
    22:00 +25°C° 0.1 mm 2 mps 760 mmHg 77%
    23:00 +25°C° 0.1 mm 3 mps 760 mmHg 76%
    Show more